Time,TemperatureF,DewpointF,PressureIn,WindDirection,WindDirectionDegrees,WindSpeedMPH,WindSpeedGustMPH,Humidity,HourlyPrecipIn,Conditions,Clouds,dailyrainin,SolarRadiationWatts/m^2,SoftwareType,DateUTC
2013-01-06 13:22:00,51.0,39.0,30.24,ENE,65,10.0,23.0,64,0.00,,,0.01,377.000000,,2013-01-06 21:22:00,
2013-01-06 13:42:00,51.0,39.0,30.24,ENE,65,10.0,23.0,64,0.00,,,0.01,377.000000,,2013-01-06 21:42:00,
2013-01-06 13:52:00,51.0,39.0,30.24,ENE,65,10.0,23.0,64,0.00,,,0.01,377.000000,,2013-01-06 21:52:00,
2013-01-06 14:22:00,52.0,40.0,30.22,NE,46,6.0,23.0,63,0.00,,,0.01,452.000000,,2013-01-06 22:22:00,
2013-01-06 14:33:00,52.0,40.0,30.22,NE,46,6.0,23.0,63,0.00,,,0.01,452.000000,,2013-01-06 22:33:00,
2013-01-06 14:43:00,52.0,40.0,30.22,NE,46,6.0,23.0,63,0.00,,,0.01,452.000000,,2013-01-06 22:43:00,
2013-01-06 14:52:00,52.0,40.0,30.22,NE,46,6.0,23.0,63,0.00,,,0.01,452.000000,,2013-01-06 22:52:00,
2013-01-06 15:22:00,50.0,39.0,30.22,ENE,58,7.0,22.0,66,0.00,,,0.01,268.000000,,2013-01-06 23:22:00,
2013-01-06 15:32:00,50.0,39.0,30.22,ENE,58,7.0,22.0,66,0.00,,,0.01,268.000000,,2013-01-06 23:32:00,
2013-01-06 15:42:00,50.0,39.0,30.22,ENE,58,7.0,22.0,66,0.00,,,0.01,268.000000,,2013-01-06 23:42:00,
2013-01-06 15:52:00,50.0,39.0,30.22,ENE,58,7.0,22.0,66,0.00,,,0.01,268.000000,,2013-01-06 23:52:00,
2013-01-06 16:23:00,48.0,40.0,30.20,ENE,78,3.0,14.0,73,0.00,,,0.01,46.000000,,2013-01-07 00:23:00,
2013-01-06 16:32:00,48.0,40.0,30.20,ENE,78,3.0,14.0,73,0.00,,,0.01,46.000000,,2013-01-07 00:32:00,
2013-01-06 16:42:00,48.0,40.0,30.20,ENE,78,3.0,14.0,73,0.00,,,0.01,46.000000,,2013-01-07 00:42:00,
2013-01-06 16:52:00,48.0,40.0,30.20,ENE,78,3.0,14.0,73,0.00,,,0.01,46.000000,,2013-01-07 00:52:00,
2013-01-06 17:22:00,47.0,41.0,30.19,ESE,105,5.0,10.0,81,0.00,,,0.01,12.000000,,2013-01-07 01:22:00,
2013-01-06 17:32:00,47.0,41.0,30.19,ESE,105,5.0,10.0,81,0.00,,,0.01,12.000000,,2013-01-07 01:32:00,
2013-01-06 17:42:00,47.0,41.0,30.19,ESE,105,5.0,10.0,81,0.00,,,0.01,12.000000,,2013-01-07 01:42:00,
2013-01-06 17:52:00,47.0,41.0,30.19,ESE,105,5.0,10.0,81,0.00,,,0.01,12.000000,,2013-01-07 01:52:00,
2013-01-06 18:22:00,45.0,41.0,30.18,East,85,4.0,8.0,85,0.00,,,0.01,0.000000,,2013-01-07 02:22:00,
2013-01-06 18:32:00,45.0,41.0,30.18,East,85,4.0,8.0,85,0.00,,,0.01,0.000000,,2013-01-07 02:32:00,
2013-01-06 18:42:00,45.0,41.0,30.18,East,85,4.0,8.0,85,0.00,,,0.01,0.000000,,2013-01-07 02:42:00,
2013-01-06 18:52:00,45.0,41.0,30.18,East,85,4.0,8.0,85,0.00,,,0.01,0.000000,,2013-01-07 02:52:00,
2013-01-06 19:22:00,44.0,41.0,30.19,East,93,4.0,9.0,89,0.00,,,0.01,0.000000,,2013-01-07 03:22:00,
2013-01-06 19:32:00,44.0,41.0,30.19,East,93,4.0,9.0,89,0.00,,,0.01,0.000000,,2013-01-07 03:32:00,
2013-01-06 19:42:00,44.0,41.0,30.19,East,93,4.0,9.0,89,0.00,,,0.01,0.000000,,2013-01-07 03:42:00,
2013-01-06 19:52:00,44.0,41.0,30.19,East,93,4.0,9.0,89,0.00,,,0.01,0.000000,,2013-01-07 03:52:00,
2013-01-06 20:12:00,43.0,42.0,30.18,East,85,5.0,8.0,95,0.00,,,0.01,0.000000,,2013-01-07 04:12:00,
2013-01-06 20:22:00,43.0,42.0,30.18,East,85,5.0,8.0,95,0.00,,,0.01,0.000000,,2013-01-07 04:22:00,
2013-01-06 20:32:00,43.0,42.0,30.18,East,85,5.0,8.0,95,0.00,,,0.01,0.000000,,2013-01-07 04:32:00,
2013-01-06 20:42:00,43.0,42.0,30.18,East,85,5.0,8.0,95,0.00,,,0.01,0.000000,,2013-01-07 04:42:00,
2013-01-06 20:52:00,43.0,42.0,30.18,East,85,5.0,8.0,95,0.00,,,0.01,0.000000,,2013-01-07 04:52:00,
2013-01-06 21:22:00,43.0,42.0,30.18,ESE,108,4.0,7.0,95,0.00,,,0.01,0.000000,,2013-01-07 05:22:00,
2013-01-06 21:32:00,43.0,42.0,30.18,ESE,108,4.0,7.0,95,0.00,,,0.01,0.000000,,2013-01-07 05:32:00,
2013-01-06 21:42:00,43.0,42.0,30.18,ESE,108,4.0,7.0,95,0.00,,,0.01,0.000000,,2013-01-07 05:42:00,
2013-01-06 21:52:00,43.0,42.0,30.18,ESE,108,4.0,7.0,95,0.00,,,0.01,0.000000,,2013-01-07 05:52:00,
2013-01-06 22:22:00,43.0,40.0,30.18,ENE,78,6.0,17.0,89,0.00,,,0.01,0.000000,,2013-01-07 06:22:00,
2013-01-06 22:32:00,43.0,40.0,30.18,ENE,78,6.0,17.0,89,0.00,,,0.01,0.000000,,2013-01-07 06:32:00,
2013-01-06 22:42:00,43.0,40.0,30.18,ENE,78,6.0,17.0,89,0.00,,,0.01,0.000000,,2013-01-07 06:42:00,
2013-01-06 22:52:00,43.0,40.0,30.18,ENE,78,6.0,17.0,89,0.00,,,0.01,0.000000,,2013-01-07 06:52:00,
2013-01-06 23:22:00,43.0,37.0,30.18,ESE,116,7.0,15.0,78,0.00,,,0.01,0.000000,,2013-01-07 07:22:00,
2013-01-06 23:32:00,43.0,37.0,30.18,ESE,116,7.0,15.0,78,0.00,,,0.01,0.000000,,2013-01-07 07:32:00,
2013-01-06 23:42:00,43.0,37.0,30.18,ESE,116,7.0,15.0,78,0.00,,,0.01,0.000000,,2013-01-07 07:42:00,
2013-01-06 23:52:00,43.0,37.0,30.18,ESE,116,7.0,15.0,78,0.00,,,0.01,0.000000,,2013-01-07 07:52:00,